This is the latest recevied weather packets stored in our database for station/object K3HW. If no packets are shown the sender has not sent any weather packets the latest 10 day(s).
| Time | Temp. | Humidity | Pressure | Rain* | Wind** | Luminosity | Snow |
|---|---|---|---|---|---|---|---|
| 1777996022 | 26.67° C | 41% | 1014.1 hPa | 0 mm | - | 712 W/m² | - |
| 1777995718 | 27.22° C | 41% | 1014.1 hPa | 0 mm | - | 705 W/m² | - |
| 1777995415 | 27.22° C | 42% | 1014.1 hPa | 0 mm | - | 684 W/m² | - |
| 1777995112 | 26.67° C | 42% | 1014.2 hPa | 0 mm | - | 692 W/m² | - |
| 1777994809 | 26.67° C | 43% | 1014.3 hPa | 0 mm | - | 683 W/m² | - |
| 1777994504 | 26.11° C | 43% | 1014.1 hPa | 0 mm | - | 677 W/m² | - |
| 1777994200 | 26.11° C | 44% | 1014.4 hPa | 0 mm | - | 666 W/m² | - |
| 1777993898 | 26.11° C | 45% | 1014.2 hPa | 0 mm | - | 654 W/m² | - |
| 1777993593 | 25.56° C | 45% | 1014.2 hPa | 0 mm | - | 637 W/m² | - |
| 1777993291 | 25° C | 46% | 1014.2 hPa | 0 mm | - | 555 W/m² | - |
| 1777992986 | 25° C | 48% | 1014.3 hPa | 0 mm | - | 229 W/m² | - |
| 1777992685 | 24.44° C | 46% | 1014.3 hPa | 0 mm | - | 108 W/m² | - |
| 1777992382 | 24.44° C | 47% | 1014 hPa | 0 mm | - | 138 W/m² | - |
| 1777992080 | 24.44° C | 47% | 1014.1 hPa | 0 mm | - | 128 W/m² | - |
| 1777991777 | 23.89° C | 46% | 1014.1 hPa | 0 mm | - | 222 W/m² | - |
| 1777991474 | 23.89° C | 47% | 1014.2 hPa | 0 mm | - | 64 W/m² | - |
| 1777991171 | 23.89° C | 47% | 1014.2 hPa | 0 mm | - | 81 W/m² | - |
| 1777990868 | 23.33° C | 48% | 1014.6 hPa | 0 mm | - | 82 W/m² | - |
| 1777990566 | 22.78° C | 51% | 1014.5 hPa | 0 mm | - | 65 W/m² | - |
| 1777989959 | 22.22° C | 51% | 1014.6 hPa | 0 mm | - | 118 W/m² | - |
| 1777989656 | 22.22° C | 51% | 1014.9 hPa | 0 mm | - | 129 W/m² | - |
| 1777989352 | 21.67° C | 52% | 1014.8 hPa | 0 mm | - | 61 W/m² | - |
| 1777989048 | 21.11° C | 54% | 1014.9 hPa | 0 mm | - | 58 W/m² | - |
| 1777988744 | 21.11° C | 56% | 1015 hPa | 0 mm | - | 63 W/m² | - |
| 1777988442 | 21.11° C | 55% | 1015 hPa | 0 mm | - | 85 W/m² | - |
* Rain latest hour (hover to see other rain measurements)
** Current wind speed in m/s (hover to see current wind gust speed)